Location: Eekst
(53.0191°N, 6.7366°E)
Time: 21:33:32
(UTC+00:00)

Cosmos 2278 - Pass Details

Date: 15 May 2026
Orbit: 837 x 852 km, 71.1° (Epoch: 10 June)

Event Time Altitude Azimuth Distance (km) Brightness Sun altitude
Rises 20:59:33 0° 326° (NW) 3,432 9.1 -11.0°
Reaches altitude 10° 21:02:03 10° 322° (NW) 2,492 7.7 -11.2°
Maximum altitude 21:07:35 52° 248° (WSW) 1,053 4.3 -11.7°
Enters shadow 21:12:34 13° 174° (S) 2,288 5.4 -12.1°
